Location: Amsterdam
(30.7274°N, 84.4357°W)
Time: 21:22:12
(UTC+00:00)

Explorer 11/Cluster Stage 4 - Pass Details

Date: 16 February 2026
Orbit: 463 x 1176 km, 28.8° (Epoch: 7 March)

Event Time Altitude Azimuth Distance (km) Brightness Sun altitude
Rises 22:28:20 0° 271° (W) 2,473 10.6 11.1°
Reaches altitude 10° 22:30:28 10° 266° (W) 1,608 10.1 10.7°
Maximum altitude 22:33:59 49° 190° (S) 630 6.6 10.0°
Drops below altitude 10° 22:37:49 10° 115° (ESE) 1,764 8.0 9.2°
Sets 22:40:17 0° 110° (ESE) 2,747 8.9 8.7°
